User: anonymous   Login
Location: Unspecified
(0.0000°N, 0.0000°E)
Time: 11:43:16
(UTC+00:00)
Language:

Vanguard 1 - Orbit

View from above orbital plane
View from above orbital plane
View from above satellite
View from above satellite

Ground track
Ground track

The orbit data is extracted from the following two-line orbital elements,

1 00005U 58002B   14295.67328847  .00000288  00000-0  39577-3 0  2788
2 00005 034.2430 107.6048 1846074 062.6328 314.9929 10.84398134981114
Epoch (UTC): 22 October 2014 16:09:32
Eccentricity: 0.1846074
inclination: 34.2430°
perigee height: 652 km
apogee height: 3835 km
right ascension of ascending node: 107.6048°
argument of perigee: 62.6328°
revolutions per day: 10.84398134
mean anomaly at epoch: 314.9929°
orbit number at epoch: 98111

The dashed part of the orbit path shows where the satellite is in the earth's shadow,  

DLR